Weather History for Ludington, MI

Change the Weather History Date:

Saturday, July 5, 2014

  Actual Average Record
Temperature  
Mean Temperature 58 °F -  
Max Temperature 74 °F 79 °F 96 °F (1988)
Min Temperature 42 °F 55 °F 37 °F (1972)
Degree Days  
Heating Degree Days 7    
Growing Degree Days 8 (Base 50)    
Moisture  
Dew Point 53 °F    
Average Humidity 72    
Maximum Humidity 97    
Minimum Humidity 47    
Precipitation  
Precipitation 0.00 in - - ()
Sea Level Pressure  
Sea Level Pressure 30.19 in    
Wind  
Wind Speed 5 mph (SSW)    
Max Wind Speed 18 mph    
Max Gust Speed 26 mph    
Visibility 9 miles    
Events      
Averages and records for this station are not official NWS values.
T = Trace of Precipitation, MM = Missing Value Source: NWS Daily Summary

Daily Weather History Graph

Daily Weather History Graph

Search for Another Location

Airport:

Trip Planner

Search our weather history database for the weather conditions in past years. The results will help you decide how hot, cold, wet, or windy it might be!

Date:

Astronomy

Jul. 05, 2014 Rise Set
Actual Time 6:09 AM EDT 9:31 PM EDT
Civil Twilight 5:33 AM EDT 10:06 PM EDT
Nautical Twilight 4:46 AM EDT 10:53 PM EDT
Astronomical Twilight 3:48 AM EDT 11:51 PM EDT
Moon 2:20 PM EDT (7/5) 1:07 AM EDT (7/5)
Length of Visible Light 16h 33m
Length of Day
15h 21m
First Quarter, 52% of the Moon is Illuminated
Jul 5
First Quarter
Jul 12
Full
Jul 18
Last Quarter
Jul 26
New
Aug 3
First Quarter

Hourly Weather History & Observations

Time (EDT) Temp. Windchill Dew Point Humidity Pressure Visibility Wind Dir Wind Speed Gust Speed Precip Events Conditions
12:15 AM 49.3 °F - 47.7 °F 94% 30.29 in 10.0 mi Calm Calm - N/A   Clear
12:34 AM 49.3 °F - 47.8 °F 95% 30.29 in 10.0 mi Calm Calm - N/A   Clear
12:55 AM 49.3 °F - 48.2 °F 96% 30.28 in 10.0 mi Calm Calm - N/A   Clear
1:15 AM 49.3 °F - 48.2 °F 96% 30.27 in 5.0 mi Calm Calm - N/A   Clear
1:34 AM 47.5 °F - 46.2 °F 95% 30.27 in 5.0 mi Calm Calm - N/A   Clear
1:55 AM 49.3 °F - 48.2 °F 96% 30.27 in 10.0 mi Calm Calm - N/A   Clear
2:15 AM 48.7 °F - 47.7 °F 96% 30.26 in 5.0 mi Calm Calm - N/A   Clear
2:34 AM 47.1 °F - 46.0 °F 96% 30.26 in 5.0 mi Calm Calm - N/A   Clear
2:55 AM 46.8 °F - 45.9 °F 97% 30.26 in 7.0 mi Calm Calm - N/A   Clear
3:15 AM 47.7 °F - 46.8 °F 97% 30.26 in 5.0 mi Calm Calm - N/A   Clear
3:35 AM 46.8 °F - 45.9 °F 97% 30.27 in 1.2 mi Calm Calm - N/A   Mist
3:55 AM 43.9 °F - 43.0 °F 97% 30.26 in 4.0 mi Calm Calm - N/A   Clear
4:15 AM 42.4 °F - 41.5 °F 97% 30.26 in 10.0 mi Calm Calm - N/A   Clear
4:35 AM 46.8 °F - 46.0 °F 97% 30.26 in 7.0 mi Calm Calm - N/A   Clear
4:55 AM 45.9 °F - 45.1 °F 97% 30.26 in 7.0 mi Calm Calm - N/A   Clear
5:15 AM 46.8 °F - 46.0 °F 97% 30.26 in 7.0 mi Calm Calm - N/A   Clear
5:35 AM 46.6 °F - 45.9 °F 97% 30.26 in 10.0 mi Calm Calm - N/A   Clear
5:55 AM 46.8 °F - 46.0 °F 97% 30.26 in 10.0 mi Calm Calm - N/A   Clear
6:15 AM 46.8 °F - 46.0 °F 97% 30.26 in 10.0 mi Calm Calm - N/A   Clear
6:35 AM 45.5 °F 44.2 °F 44.6 °F 97% 30.26 in 10.0 mi ESE 3.5 mph - N/A   Clear
6:55 AM 49.3 °F - 48.2 °F 96% 30.26 in 10.0 mi ESE 3.5 mph - N/A   Clear
7:15 AM 51.8 °F - 50.0 °F 94% 30.25 in 10.0 mi Calm Calm - N/A   Clear
7:35 AM 54.5 °F - 52.0 °F 91% 30.25 in 10.0 mi East 3.5 mph - N/A   Clear
7:55 AM 56.8 °F - 53.6 °F 89% 30.25 in 10.0 mi Calm Calm - N/A   Clear
8:15 AM 59.4 °F - 54.0 °F 82% 30.26 in 10.0 mi Calm Calm - N/A   Clear
8:35 AM 62.2 °F - 54.3 °F 75% 30.26 in 10.0 mi South 8.1 mph - N/A   Clear
8:55 AM 66.0 °F - 55.9 °F 70% 30.27 in 10.0 mi South 3.5 mph - N/A   Clear
9:15 AM 69.4 °F - 57.0 °F 65% 30.27 in 10.0 mi SW 8.1 mph - N/A   Clear
9:35 AM 69.4 °F - 54.1 °F 58% 30.26 in 10.0 mi SSW 9.2 mph - N/A   Clear
9:55 AM 69.4 °F - 54.0 °F 58% 30.26 in 10.0 mi SSW 9.2 mph - N/A   Clear
10:15 AM 69.8 °F - 51.6 °F 52% 30.26 in 10.0 mi SW 11.5 mph 17.3 mph N/A   Clear
10:35 AM 69.4 °F - 52.5 °F 55% 30.25 in 10.0 mi SW 12.7 mph - N/A   Clear
10:55 AM 71.4 °F - 52.5 °F 51% 30.25 in 10.0 mi SW 13.8 mph 18.4 mph N/A   Clear
11:15 AM 70.9 °F - 52.0 °F 51% 30.25 in 10.0 mi SSW 11.5 mph - N/A   Clear
11:35 AM 72.3 °F - 54.0 °F 52% 30.24 in 10.0 mi SSW 11.5 mph - N/A   Scattered Clouds
11:55 AM 74.5 °F - 53.8 °F 48% 30.23 in 10.0 mi SW 11.5 mph 17.3 mph N/A   Scattered Clouds
12:15 PM 74.5 °F - 53.2 °F 47% 30.22 in 10.0 mi SW 13.8 mph 19.6 mph N/A   Mostly Cloudy
12:35 PM 74.5 °F - 54.1 °F 49% 30.21 in 10.0 mi SSW 13.8 mph 19.6 mph N/A   Mostly Cloudy
12:55 PM 74.5 °F - 57.7 °F 56% 30.20 in 10.0 mi SW 13.8 mph 18.4 mph N/A   Scattered Clouds
1:15 PM 74.5 °F - 57.6 °F 55% 30.20 in 10.0 mi SSW 16.1 mph - N/A   Scattered Clouds
1:35 PM 74.5 °F - 58.3 °F 57% 30.20 in 10.0 mi SW 12.7 mph 19.6 mph N/A   Clear
1:55 PM 74.5 °F - 57.7 °F 56% 30.19 in 10.0 mi SW 15.0 mph 20.7 mph N/A   Clear
2:15 PM 74.5 °F - 57.2 °F 55% 30.18 in 10.0 mi SW 12.7 mph 19.6 mph N/A   Clear
2:35 PM 74.5 °F - 59.5 °F 60% 30.18 in 10.0 mi SW 17.3 mph 23.0 mph N/A   Clear
2:55 PM 74.5 °F - 57.9 °F 56% 30.16 in 10.0 mi SSW 16.1 mph - N/A   Clear
3:15 PM 74.5 °F - 56.8 °F 54% 30.16 in 10.0 mi SSW 16.1 mph - N/A   Clear
4:15 PM 74.5 °F - 58.5 °F 57% 30.14 in 10.0 mi SSW 12.7 mph 18.4 mph N/A   Clear
4:35 PM 74.5 °F - 58.3 °F 57% 30.14 in 10.0 mi SSW 13.8 mph 19.6 mph N/A   Clear
4:54 PM 74.5 °F - 59.2 °F 59% 30.13 in 10.0 mi SSW 16.1 mph 19.6 mph N/A   Clear
5:15 PM 74.5 °F - 57.7 °F 56% 30.13 in 10.0 mi SSW 18.4 mph 23.0 mph N/A   Clear
5:35 PM 74.5 °F - 57.6 °F 55% 30.12 in 10.0 mi SSW 18.4 mph 24.2 mph N/A   Clear
5:54 PM 74.5 °F - 57.7 °F 56% 30.11 in 10.0 mi SSW 15.0 mph 26.5 mph N/A   Clear
6:15 PM 74.5 °F - 58.5 °F 57% 30.12 in 10.0 mi SSW 18.4 mph 25.3 mph N/A   Clear
6:35 PM 74.5 °F - 57.6 °F 55% 30.11 in 10.0 mi SSW 15.0 mph 23.0 mph N/A   Clear
6:54 PM 74.5 °F - 57.9 °F 56% 30.11 in 10.0 mi SSW 16.1 mph 24.2 mph N/A   Clear
7:15 PM 74.5 °F - 57.9 °F 56% 30.10 in 10.0 mi SSW 15.0 mph 21.9 mph N/A   Clear
7:35 PM 74.5 °F - 58.1 °F 57% 30.10 in 10.0 mi SSW 17.3 mph 21.9 mph N/A   Clear
7:54 PM 72.0 °F - 55.8 °F 57% 30.09 in 10.0 mi SSW 13.8 mph - N/A   Clear
8:15 PM 72.0 °F - 55.9 °F 57% 30.07 in 10.0 mi SSW 15.0 mph 21.9 mph N/A   Clear
8:35 PM 70.7 °F - 55.6 °F 59% 30.07 in 10.0 mi SSW 12.7 mph 20.7 mph N/A   Clear
8:55 PM 69.4 °F - 54.7 °F 59% 30.05 in 10.0 mi South 13.8 mph - N/A   Clear
9:15 PM 69.4 °F - 55.6 °F 61% 30.05 in 10.0 mi SSW 10.4 mph 17.3 mph N/A   Clear
9:35 PM 69.4 °F - 55.9 °F 62% 30.05 in 10.0 mi SSW 10.4 mph 17.3 mph N/A   Clear
9:55 PM 69.4 °F - 56.8 °F 64% 30.04 in 10.0 mi SSW 8.1 mph - N/A   Clear
10:15 PM 69.4 °F - 57.2 °F 65% 30.04 in 10.0 mi SSW 10.4 mph - N/A   Clear
10:35 PM 69.4 °F - 57.6 °F 66% 30.05 in 10.0 mi SSW 8.1 mph - N/A   Clear
10:55 PM 69.4 °F - 57.9 °F 67% 30.04 in 10.0 mi South 8.1 mph - N/A   Clear
11:15 PM 69.4 °F - 58.1 °F 67% 30.05 in 10.0 mi SSW 9.2 mph - N/A   Clear
11:35 PM 67.1 °F - 57.2 °F 70% 30.04 in 10.0 mi SSW 10.4 mph 16.1 mph N/A   Scattered Clouds
11:55 PM 67.1 °F - 58.1 °F 73% 30.04 in 10.0 mi SSW 9.2 mph - N/A   Overcast